• In Deutschland
  • Länderverzeichnis
  • Für 7 Tage
  • Wassertemperatur
  • Satellitenkarten
  • Wetterkarte
  • Widgets
  • user-avatar
    Anmelden

    Stündliche Wetter Sarajevo

    Heute, 18 August, Samstag

    Zeit Temperatur Niederschläge Wind Luftdruck Luftfeuchtigkeit
    00:00 +18°C° 0,1 mm 1 m/S 689 mmHg 82%
    01:00 +16°C° 0,1 mm 1 m/S 689 mmHg 83%
    02:00 +16°C° 0,1 mm 1 m/S 689 mmHg 84%
    03:00 +16°C° 0,1 mm 1 m/S 689 mmHg 84%
    04:00 +16°C° 0,1 mm 1 m/S 689 mmHg 84%
    05:00 +18°C° 0 mm 1 m/S 690 mmHg 80%
    06:00 +19°C° 0 mm 1 m/S 690 mmHg 77%
    07:00 +21°C° 0 mm 1 m/S 690 mmHg 73%
    08:00 +23°C° 0 mm 1 m/S 691 mmHg 65%
    09:00 +25°C° 0 mm 1 m/S 691 mmHg 57%
    10:00 +27°C° 0 mm 1 m/S 692 mmHg 49%
    11:00 +28°C° 0,1 mm 1 m/S 692 mmHg 47%
    12:00 +28°C° 0,1 mm 2 m/S 692 mmHg 46%
    13:00 +29°C° 0,1 mm 2 m/S 692 mmHg 45%
    14:00 +28°C° 0,2 mm 2 m/S 691 mmHg 48%
    15:00 +27°C° 0,2 mm 2 m/S 691 mmHg 51%
    16:00 +27°C° 0,2 mm 2 m/S 691 mmHg 54%
    17:00 +25°C° 0,4 mm 2 m/S 691 mmHg 61%
    18:00 +23°C° 0,4 mm 1 m/S 691 mmHg 67%
    19:00 +21°C° 0,4 mm 1 m/S 690 mmHg 73%
    20:00 +21°C° 0,5 mm 1 m/S 690 mmHg 76%
    21:00 +20°C° 0,5 mm 1 m/S 691 mmHg 78%
    22:00 +19°C° 0,5 mm 1 m/S 691 mmHg 80%
    23:00 +19°C° 0,2 mm 1 m/S 691 mmHg 82%

    Morgen, 19 August, Sonntag

    Zeit Temperatur Niederschläge Wind Luftdruck Luftfeuchtigkeit
    00:00 +19°C° 0,2 mm 1 m/S 691 mmHg 83%
    01:00 +18°C° 0,2 mm 1 m/S 691 mmHg 84%
    02:00 +18°C° 0,1 mm 1 m/S 690 mmHg 84%
    03:00 +18°C° 0,1 mm 1 m/S 690 mmHg 85%
    04:00 +16°C° 0,1 mm 1 m/S 690 mmHg 85%
    05:00 +18°C° 0,2 mm 1 m/S 690 mmHg 82%
    06:00 +20°C° 0,2 mm 1 m/S 691 mmHg 80%
    07:00 +21°C° 0,2 mm 1 m/S 691 mmHg 77%
    08:00 +23°C° 0,1 mm 2 m/S 692 mmHg 69%
    09:00 +25°C° 0,1 mm 2 m/S 692 mmHg 60%
    10:00 +27°C° 0,1 mm 2 m/S 692 mmHg 52%
    11:00 +27°C° 0,2 mm 2 m/S 692 mmHg 50%
    12:00 +28°C° 0,2 mm 2 m/S 692 mmHg 48%
    13:00 +29°C° 0,2 mm 2 m/S 692 mmHg 46%
    14:00 +28°C° 0,2 mm 2 m/S 692 mmHg 49%
    15:00 +27°C° 0,2 mm 2 m/S 691 mmHg 53%
    16:00 +26°C° 0,2 mm 2 m/S 691 mmHg 56%
    17:00 +24°C° 0,3 mm 2 m/S 690 mmHg 62%
    18:00 +23°C° 0,3 mm 2 m/S 690 mmHg 68%
    19:00 +20°C° 0,3 mm 2 m/S 690 mmHg 74%
    20:00 +19°C° 0,1 mm 2 m/S 690 mmHg 76%
    21:00 +18°C° 0,1 mm 2 m/S 690 mmHg 78%
    22:00 +18°C° 0,1 mm 2 m/S 690 mmHg 81%
    23:00 +17°C° 0 mm 2 m/S 690 mmHg 82%

    übermorgen, 20 August, Montag

    Zeit Temperatur Niederschläge Wind Luftdruck Luftfeuchtigkeit
    00:00 +17°C° 0 mm 2 m/S 689 mmHg 83%
    01:00 +16°C° 0 mm 1 m/S 689 mmHg 84%
    02:00 +16°C° 0 mm 1 m/S 689 mmHg 84%
    03:00 +16°C° 0 mm 1 m/S 689 mmHg 84%
    04:00 +16°C° 0 mm 1 m/S 689 mmHg 84%
    05:00 +17°C° 0 mm 2 m/S 689 mmHg 81%
    06:00 +18°C° 0 mm 2 m/S 689 mmHg 78%
    07:00 +20°C° 0 mm 2 m/S 690 mmHg 75%
    08:00 +23°C° 0 mm 2 m/S 690 mmHg 66%
    09:00 +25°C° 0 mm 2 m/S 690 mmHg 58%
    10:00 +27°C° 0 mm 2 m/S 691 mmHg 50%
    11:00 +27°C° 0,2 mm 2 m/S 691 mmHg 49%
    12:00 +28°C° 0,2 mm 2 m/S 691 mmHg 48%
    13:00 +28°C° 0,2 mm 2 m/S 691 mmHg 47%
    14:00 +28°C° 0,4 mm 2 m/S 690 mmHg 49%
    15:00 +27°C° 0,4 mm 2 m/S 690 mmHg 52%
    16:00 +26°C° 0,4 mm 2 m/S 690 mmHg 54%
    17:00 +25°C° 0,2 mm 2 m/S 689 mmHg 60%
    18:00 +23°C° 0,2 mm 1 m/S 689 mmHg 66%
    19:00 +21°C° 0,2 mm 1 m/S 689 mmHg 73%
    20:00 +20°C° 0 mm 1 m/S 689 mmHg 75%
    21:00 +19°C° 0 mm 1 m/S 689 mmHg 78%
    22:00 +18°C° 0 mm 1 m/S 689 mmHg 80%
    23:00 +18°C° 0 mm 1 m/S 689 mmHg 81%

    21 August, Dienstag

    Zeit Temperatur Niederschläge Wind Luftdruck Luftfeuchtigkeit
    00:00 +18°C° 0 mm 1 m/S 689 mmHg 81%
    01:00 +18°C° 0 mm 1 m/S 689 mmHg 82%
    02:00 +18°C° 0 mm 1 m/S 689 mmHg 82%
    03:00 +16°C° 0 mm 1 m/S 689 mmHg 82%
    04:00 +16°C° 0 mm 1 m/S 688 mmHg 82%
    05:00 +18°C° 0 mm 1 m/S 689 mmHg 79%
    06:00 +20°C° 0 mm 1 m/S 689 mmHg 75%
    07:00 +21°C° 0 mm 1 m/S 690 mmHg 71%
    08:00 +23°C° 0 mm 2 m/S 690 mmHg 63%
    09:00 +25°C° 0 mm 2 m/S 691 mmHg 56%
    10:00 +27°C° 0 mm 2 m/S 691 mmHg 48%
    11:00 +28°C° 0,1 mm 2 m/S 691 mmHg 46%
    12:00 +28°C° 0,1 mm 2 m/S 691 mmHg 43%
    13:00 +29°C° 0,1 mm 3 m/S 691 mmHg 41%
    14:00 +29°C° 0 mm 2 m/S 691 mmHg 42%
    15:00 +28°C° 0 mm 2 m/S 691 mmHg 43%
    16:00 +28°C° 0 mm 2 m/S 690 mmHg 44%
    17:00 +26°C° 0 mm 2 m/S 690 mmHg 51%
    18:00 +23°C° 0 mm 2 m/S 690 mmHg 58%
    19:00 +21°C° 0 mm 1 m/S 689 mmHg 65%
    20:00 +20°C° 0 mm 1 m/S 689 mmHg 66%
    21:00 +19°C° 0 mm 1 m/S 689 mmHg 68%
    22:00 +18°C° 0 mm 1 m/S 689 mmHg 69%
    23:00 +18°C° 0 mm 1 m/S 689 mmHg 69%

    22 August, Mittwoch

    Zeit Temperatur Niederschläge Wind Luftdruck Luftfeuchtigkeit
    00:00 +16°C° 0 mm 1 m/S 689 mmHg 69%
    01:00 +16°C° 0 mm 1 m/S 689 mmHg 69%
    02:00 +16°C° 0 mm 1 m/S 689 mmHg 68%
    03:00 +16°C° 0 mm 1 m/S 689 mmHg 68%
    04:00 +15°C° 0 mm 1 m/S 689 mmHg 67%
    05:00 +18°C° 0 mm 1 m/S 689 mmHg 65%
    06:00 +19°C° 0 mm 1 m/S 690 mmHg 63%
    07:00 +21°C° 0 mm 1 m/S 690 mmHg 60%
    08:00 +23°C° 0 mm 1 m/S 691 mmHg 53%
    09:00 +25°C° 0 mm 2 m/S 691 mmHg 45%
    10:00 +27°C° 0 mm 2 m/S 691 mmHg 37%
    11:00 +28°C° 0 mm 2 m/S 691 mmHg 35%
    12:00 +29°C° 0 mm 2 m/S 691 mmHg 32%
    13:00 +29°C° 0 mm 2 m/S 691 mmHg 30%
    14:00 +29°C° 0 mm 2 m/S 691 mmHg 32%
    15:00 +29°C° 0 mm 2 m/S 691 mmHg 34%
    16:00 +28°C° 0 mm 2 m/S 691 mmHg 36%
    17:00 +26°C° 0 mm 1 m/S 690 mmHg 43%
    18:00 +23°C° 0 mm 1 m/S 690 mmHg 50%
    19:00 +20°C° 0 mm 1 m/S 689 mmHg 58%
    20:00 +19°C° 0 mm 1 m/S 689 mmHg 58%
    21:00 +19°C° 0 mm 1 m/S 689 mmHg 58%
    22:00 +18°C° 0 mm 1 m/S 689 mmHg 58%
    23:00 +18°C° 0 mm 1 m/S 689 mmHg 57%

    23 August, Donnerstag

    Zeit Temperatur Niederschläge Wind Luftdruck Luftfeuchtigkeit
    00:00 +16°C° 0 mm 1 m/S 689 mmHg 57%
    01:00 +16°C° 0 mm 1 m/S 689 mmHg 56%
    02:00 +16°C° 0 mm 1 m/S 689 mmHg 56%
    03:00 +15°C° 0 mm 1 m/S 688 mmHg 56%
    04:00 +15°C° 0 mm 1 m/S 688 mmHg 56%
    05:00 +18°C° 0 mm 1 m/S 689 mmHg 56%
    06:00 +19°C° 0 mm 1 m/S 689 mmHg 56%
    07:00 +20°C° 0 mm 1 m/S 689 mmHg 55%
    08:00 +23°C° 0 mm 1 m/S 690 mmHg 48%
    09:00 +25°C° 0 mm 1 m/S 690 mmHg 41%
    10:00 +28°C° 0 mm 1 m/S 690 mmHg 34%
    11:00 +28°C° 0 mm 1 m/S 690 mmHg 33%
    12:00 +29°C° 0 mm 2 m/S 690 mmHg 32%
    13:00 +30°C° 0 mm 2 m/S 690 mmHg 31%
    14:00 +29°C° 0 mm 2 m/S 690 mmHg 33%
    15:00 +29°C° 0 mm 2 m/S 690 mmHg 35%
    16:00 +28°C° 0 mm 2 m/S 689 mmHg 38%
    17:00 +26°C° 0 mm 1 m/S 689 mmHg 45%
    18:00 +23°C° 0 mm 1 m/S 689 mmHg 53%
    19:00 +21°C° 0 mm 1 m/S 688 mmHg 60%
    20:00 +20°C° 0 mm 1 m/S 688 mmHg 61%
    21:00 +19°C° 0 mm 1 m/S 688 mmHg 62%
    22:00 +18°C° 0 mm 1 m/S 688 mmHg 63%
    23:00 +18°C° 0 mm 1 m/S 688 mmHg 62%
    Mehr zeigen